HARBINGER (44229 NORAD) Tracking and Keplerian Element Data

This shows tracking and keplerian element data for the satellite.

Feedback or suggestion? Click here.




ElementValue
Catalog44229
NameHARBINGER
Epoch Orbit314
Epoch Day145.96074889
Epoch Year2019
RAAN114.2994
Inclination40.0194
Eccentricity0.0007313
Argument of Perigee51.6185
Mean Anonmoly308.5275
Mean Motion15.20448585
Decay Rate1.36E-06
L11 44229U 19026E 19145.96074889 .00000136 00000-0 14266-4 0 9993
L22 44229 40.0194 114.2994 0007313 51.6185 308.5275 15.20448585 3141

Live tracking and technical data element details for HARBINGER (NORAD 44229). HARBINGER can be tracked NOW for your location showing map with azimuth and elevation plus other details from your city location.

Track the satellite on the map from your city or location and see movement details for azimuth, elevation, latitude, longitude, range, height, and movement on the map or in text.







IsCatalogInMostPopularTable: catalog: 44229, numindb: 4
Update: records affected: 1



GetName: 44229 HARBINGER

Hit Count: updated at: Sun, 26 May 2019 06:53:51 GMT